Jackson, MI

7:49 AM EST on November 17, 2019 (GMT -0500)
Jackson County-Reynolds

Weather History for KJXN - October, 2019

Change the Weather History Date:

Wednesday, October 23, 2019

  Actual Average Record
Temperature  
Mean Temperature 49 °F 48 °F  
Max Temperature 59 °F 58 °F 82 °F (1963)
Min Temperature 39 °F 38 °F 21 °F (1969)
Degree Days  
Heating Degree Days 16 17  
Month to date heating degree days 277 315  
Since 1 July heating degree days 333 503  
Cooling Degree Days 0 0  
Month to date cooling degree days 13 3  
Year to date cooling degree days 663 589  
Moisture  
Dew Point 34 °F    
Average Humidity 57    
Maximum Humidity 76    
Minimum Humidity 40    
Precipitation  
Precipitation T in 0.08 in 2.58 in (1951)
Month to date precipitation 1.96 2.01  
Year to date precipitation 28.95 26.41  
Sea Level Pressure  
Sea Level Pressure 29.92 in    
Wind  
Wind Speed 12 mph ()    
Max Wind Speed 26 mph    
Max Gust Speed 38 mph    
Visibility 10.0 miles    
Events      
T = Trace of Precipitation, MM = Missing Value Source: Averaged Metar Reports

Daily Weather History Graph

Daily Weather History Graph

Search for Another Location

Airport or City:

Astronomy

Oct. 23, 2019 Rise Set
Actual Time 7:59 AM EDT 6:43 PM EDT
Civil Twilight 7:31 AM EDT 7:12 PM EDT
Nautical Twilight 6:58 AM EDT 7:45 PM EDT
Astronomical Twilight 6:25 AM EDT 8:17 PM EDT
Moon 2:08 AM EDT (10/23) 4:41 PM EDT (10/23)
Length of Visible Light 11h 41m
Length of Day
10h 44m
Waning Crescent, 27% of the Moon is Illuminated
Oct 23
Waning Crescent
Oct 27
New
Nov 4
First Quarter
Nov 12
Full
Nov 19
Last Quarter

Hourly Weather History & Observations

Time (EDT) Temp. Windchill Dew Point Humidity Pressure Visibility Wind Dir Wind Speed Gust Speed Precip Events Conditions
12:56 AM 45.0 °F 39.3 °F 37.0 °F 74% 29.78 in 10.0 mi SSW 11.5 mph - N/A   Clear
1:56 AM 46.9 °F - 37.0 °F 68% 29.78 in 10.0 mi SSW 16.1 mph 23.0 mph N/A   Overcast
2:56 AM 45.0 °F 38.9 °F 35.1 °F 68% 29.79 in 10.0 mi SSW 12.7 mph - N/A   Clear
3:56 AM 44.1 °F 37.7 °F 36.0 °F 73% 29.79 in 10.0 mi SSW 12.7 mph 20.7 mph N/A   Clear
4:56 AM 43.0 °F 35.7 °F 35.1 °F 74% 29.81 in 10.0 mi SSW 15.0 mph 23.0 mph N/A   Clear
5:56 AM 41.0 °F 33.5 °F 33.1 °F 73% 29.83 in 10.0 mi SW 13.8 mph 23.0 mph N/A   Clear
6:56 AM 41.0 °F 33.5 °F 32.0 °F 70% 29.86 in 10.0 mi SSW 13.8 mph 20.7 mph N/A   Clear
7:56 AM 39.9 °F 31.8 °F 30.9 °F 70% 29.88 in 10.0 mi SW 15.0 mph 21.9 mph N/A   Clear
8:56 AM 41.0 °F 32.8 °F 32.0 °F 70% 29.92 in 10.0 mi SSW 16.1 mph - N/A   Clear
9:56 AM 45.0 °F 38.2 °F 33.1 °F 63% 29.94 in 10.0 mi SW 15.0 mph 25.3 mph N/A   Clear
10:20 AM 46.0 °F 39.3 °F 32.0 °F 58% 29.93 in 10.0 mi SW 16.1 mph 24.2 mph N/A   Partly Cloudy
10:56 AM 48.9 °F - 33.1 °F 54% 29.96 in 10.0 mi SW 12.7 mph 27.6 mph N/A   Clear
11:56 AM 51.1 °F - 30.9 °F 46% 29.96 in 10.0 mi SW 19.6 mph 38.0 mph N/A   Clear
12:56 PM 54.0 °F - 32.0 °F 43% 29.97 in 10.0 mi SW 15.0 mph 32.2 mph N/A   Clear
1:56 PM 55.9 °F - 32.0 °F 40% 29.96 in 10.0 mi SW 23.0 mph 36.8 mph N/A   Clear
2:56 PM 57.0 °F - 33.1 °F 40% 29.96 in 10.0 mi SW 20.7 mph 34.5 mph N/A   Clear
3:56 PM 57.0 °F - 33.1 °F 40% 29.95 in 10.0 mi SW 19.6 mph 29.9 mph N/A   Mostly Cloudy
4:56 PM 57.9 °F - 35.1 °F 42% 29.95 in 10.0 mi SSW 12.7 mph - N/A   Overcast
5:56 PM 55.9 °F - 36.0 °F 47% 29.97 in 10.0 mi South 10.4 mph - N/A   Clear
6:56 PM 53.1 °F - 36.0 °F 52% 29.99 in 10.0 mi South 4.6 mph - N/A   Overcast
7:56 PM 52.0 °F - 37.0 °F 57% 30.00 in 10.0 mi SE 3.5 mph - N/A   Overcast
8:56 PM 50.0 °F - 36.0 °F 59% 29.99 in 10.0 mi SSE 6.9 mph - N/A   Scattered Clouds
9:56 PM 51.1 °F - 36.0 °F 56% 30.00 in 10.0 mi South 9.2 mph - N/A   Partly Cloudy
10:56 PM 55.0 °F - 36.0 °F 49% 30.01 in 10.0 mi South 11.5 mph - N/A   Overcast
11:56 PM 55.0 °F - 35.1 °F 47% 29.99 in 10.0 mi South 12.7 mph 21.9 mph N/A   Overcast